Temp
30 29 28 27 26 25 24 25 25 25 24 24 24 25 26 26 26 27 27 27 27 27 27 26 26 26 25 25 24 25 25 25 24 24 25 23 22 20 21 20 21 21 20
31 29 28 27 26 26 25 25 26 25 25 24 24 25 26 26 27 27 28 27 27 27 27 26 26 26 24 26 26 25 24 24 24 24 23 27 26 22 19 19 19 20 20
31 30 28 27 27 26 25 25 26 26 25 25 24 25 26 26 26 26 26 27 27 27 27 26 26 26 25 26 26 26 26 25 23 23 23 26 27 25 21 19 20 19 19
31 31 29 27 27 26 26 25 26 26 26 25 24 25 27 27 26 26 27 27 27 27 27 27 26 27 26 26 25 26 26 25 25 23 22 20 19 21 22 19 19 19 19
32 31 30 28 27 27 26 25 26 26 26 25 25 25 25 26 26 26 27 27 27 27 26 27 27 27 26 25 26 26 25 25 24 24 23 20 20 19 19 19 18 18 18
32 31 30 28 27 27 26 26 25 26 26 25 25 26 25 25 25 26 26 26 26 26 27 26 26 26 26 26 25 25 25 25 25 24 23 22 20 19 18 18 18 17 18
32 31 30 28 28 27 27 26 25 25 26 24 24 25 26 26 25 25 26 26 26 26 25 26 26 26 27 27 27 26 26 25 25 25 23 22 22 19 17 18 18 17 17
32 32 31 29 28 28 27 26 26 25 25 25 25 26 26 25 25 25 25 25 25 25 26 26 26 26 27 27 26 24 25 25 25 24 23 23 21 19 17 17 18 17 16
32 32 32 30 29 28 27 27 26 25 25 26 26 25 26 25 25 25 25 24 24 24 25 25 25 25 25 25 25 24 24 24 24 24 23 22 21 20 18 18 18 17 17
31 32 31 31 30 29 28 27 27 26 26 26 26 26 26 26 26 26 25 25 25 25 25 25 24 25 25 25 25 24 24 23 23 23 21 21 21 19 19 18 18 18 16
32 32 31 29 29 29 28 28 27 27 26 26 26 26 26 27 26 26 26 26 25 25 25 25 24 24 24 25 24 23 23 23 23 24 23 22 21 19 19 19 19 17 16
33 33 32 31 29 29 28 27 28 27 26 27 27 27 27 26 26 26 26 26 26 25 25 25 25 24 24 23 23 23 23 23 23 23 23 22 21 20 19 19 19 17 17
31 32 31 31 30 29 28 27 27 27 26 25 25 26 27 26 26 27 26 25 25 25 25 24 23 23 23 22 22 22 22 22 22 22 23 22 21 20 20 19 19 17 17
30 30 30 29 28 27 27 27 27 28 26 25 25 26 25 25 24 25 25 25 25 25 25 23 22 22 22 22 22 22 22 22 22 22 22 22 21 20 20 19 18 17 16
29 29 29 28 27 26 26 26 26 27 26 25 25 26 25 25 24 24 24 23 24 25 24 22 22 21 22 22 21 21 22 21 21 21 21 21 20 21 20 19 18 16 17
30 29 28 28 27 25 25 25 25 25 25 25 25 25 24 23 23 23 23 23 24 23 23 21 21 20 20 20 20 20 20 21 20 20 20 19 20 20 19 19 18 19 18
29 29 28 27 27 26 25 26 25 25 24 24 24 24 23 23 22 22 22 22 22 21 20 20 20 19 20 20 20 21 20 19 19 19 19 19 19 19 19 18 18 17 18
25 27 28 27 26 25 25 25 25 24 24 24 23 23 22 22 22 21 22 21 21 20 19 19 19 19 19 20 21 20 20 19 19 18 19 18 18 18 18 18 17 17 17
25 25 26 26 25 24 23 24 24 23 24 23 23 22 22 22 21 22 21 20 20 19 18 19 19 19 19 19 20 20 19 18 19 18 19 18 18 18 18 17 17 16 16
25 24 26 25 24 23 22 23 23 23 23 23 22 22 21 21 21 21 20 19 19 18 18 17 16 17 17 18 20 19 18 17 18 18 17 18 18 18 18 18 17 16 16
24 24 24 25 24 23 23 24 22 23 23 22 21 21 21 21 20 20 19 19 19 18 18 17 16 15 15 16 17 18 17 17 17 17 17 17 17 17 18 18 17 16 16
24 24 24 24 23 22 22 23 23 22 21 21 21 20 20 20 19 19 18 18 18 18 17 16 15 14 14 16 16 16 15 16 16 17 17 16 16 17 17 17 17 17 16
22 23 23 23 22 21 22 22 21 20 20 20 19 19 18 18 18 18 18 18 18 19 18 16 14 15 15 14 16 16 15 15 15 16 17 17 17 16 16 16 17 16 16
21 20 21 22 21 20 20 21 19 19 19 19 18 18 17 17 17 18 18 18 18 18 18 17 17 16 15 13 13 14 15 15 16 16 16 16 17 16 15 15 15 16 15
18 18 19 20 21 19 19 18 19 19 18 18 17 17 16 15 13 12 13 13 13 15 16 15 15 15 15 11 13 14 16 16 16 16 16 15 15 15 15 16 16 16 15
18 17 17 17 16 16 16 17 17 17 17 17 17 16 15 14 13 12 12 13 12 12 12 12 13 12 11 12 13 14 16 16 16 15 15 15 15 15 15 15 15 15 15
Height
788 794 797 801 805 807 810 812 815 818 821 823 824 825 825 825 825 825 825 825 826 827 827 827 827 826 826 825 824 822 821 822 819 818 817 815 812 812 812 812 812 814 818
785 789 792 796 798 801 804 808 812 815 818 820 822 824 824 824 823 824 824 824 825 826 826 826 826 825 824 825 823 822 822 821 819 819 817 811 812 813 814 813 814 813 816
778 781 786 789 793 796 799 803 807 811 816 818 821 821 822 822 822 823 823 823 824 825 825 825 825 824 823 823 822 821 820 820 820 818 819 815 812 815 816 815 814 814 813
772 775 780 784 787 790 795 799 803 807 812 816 819 820 821 821 822 822 822 822 823 823 822 822 822 822 821 820 820 817 818 818 818 818 819 822 824 823 817 814 813 812 811
763 767 772 776 779 785 789 795 800 804 808 812 815 817 818 819 820 820 820 821 821 820 819 820 820 820 819 817 815 816 816 817 817 817 818 818 818 822 822 816 811 807 808
757 762 766 773 777 782 787 791 795 800 805 808 811 813 815 817 818 819 820 820 820 819 819 819 818 818 816 814 811 811 811 812 812 813 810 810 811 814 816 810 808 806 804
749 755 762 767 772 777 781 786 791 795 800 804 807 809 811 813 815 816 818 818 818 818 818 817 816 815 813 811 808 808 809 809 808 805 801 798 795 798 797 803 801 800 801
742 749 753 759 765 771 776 781 785 789 794 798 802 804 807 810 812 813 815 816 816 816 815 814 813 811 809 807 805 805 805 804 803 799 796 795 793 791 787 791 796 792 794
737 740 745 752 759 765 769 774 780 783 788 792 797 800 802 805 808 809 811 813 812 813 812 811 809 808 807 805 803 802 800 798 797 794 791 790 788 785 785 787 789 787 788
736 737 742 746 752 757 763 770 774 778 782 786 790 794 797 800 803 805 807 808 808 808 808 808 806 805 803 802 800 798 796 795 793 789 787 785 782 781 783 785 785 782 781
730 732 736 742 746 752 758 763 768 772 776 780 784 788 791 794 797 799 801 802 804 804 804 803 803 801 800 798 797 796 793 791 788 785 782 779 778 777 779 781 782 782 784
725 727 731 736 742 746 752 757 761 766 768 773 777 781 785 788 791 792 795 797 799 800 800 800 799 798 796 795 794 793 790 788 785 782 779 777 775 774 774 777 781 782 783
723 725 729 732 735 741 746 749 754 757 763 768 772 776 778 782 784 786 789 792 794 795 796 796 796 795 794 792 791 790 787 785 782 779 777 774 771 770 772 775 774 779 784
721 721 726 727 731 735 738 743 747 752 757 761 766 769 772 775 778 781 783 785 789 791 792 793 793 792 791 790 788 786 784 782 779 776 774 771 768 767 769 772 774 777 783
718 717 718 722 726 731 734 738 742 747 751 755 759 762 767 771 774 776 779 782 785 787 789 790 791 790 789 787 783 781 779 777 776 774 772 769 766 766 768 769 772 776 781
715 714 716 719 722 724 727 732 737 741 746 750 753 759 764 767 769 772 775 779 782 784 786 788 788 786 785 783 781 779 777 777 775 772 770 767 766 766 767 768 772 775 779
717 712 713 713 716 717 722 727 731 737 741 746 750 755 759 762 764 768 772 776 779 781 785 785 785 785 783 782 780 778 777 775 774 771 770 769 767 767 767 770 774 777 781
723 716 712 712 716 719 719 723 728 732 737 742 747 751 754 759 763 767 771 775 777 781 782 782 783 783 782 781 779 777 776 775 774 772 771 770 769 769 771 772 776 779 782
722 717 715 715 714 718 722 726 725 729 733 738 743 748 752 757 762 767 770 773 776 779 780 781 782 781 781 780 779 777 777 776 775 773 771 770 770 772 773 775 778 780 783
721 716 714 714 715 715 719 722 727 727 730 735 740 745 750 755 760 765 770 773 775 778 781 782 782 782 781 780 779 778 778 777 776 775 773 772 772 773 774 776 779 781 783
721 717 715 716 715 716 717 718 724 727 732 735 740 744 749 754 759 765 768 771 775 779 781 782 783 783 783 781 779 778 777 777 776 775 775 774 775 775 775 776 777 781 783
722 719 715 714 716 717 717 719 723 728 732 737 743 748 751 755 759 765 771 774 775 778 781 783 784 785 785 783 781 779 777 775 776 775 774 774 775 777 778 777 778 781 783
726 720 718 715 714 717 720 720 723 728 736 743 748 752 757 760 762 765 775 779 781 781 783 784 785 786 785 784 782 780 778 776 775 775 775 774 776 779 780 781 781 781 783
726 724 719 718 717 716 718 722 725 728 731 740 755 758 765 766 768 767 774 780 782 784 784 785 786 786 785 784 781 780 779 778 775 774 774 775 776 778 780 783 783 785 786
727 723 720 717 716 716 716 719 723 728 731 726 756 758 767 768 771 773 777 783 783 787 787 787 787 786 785 784 782 781 780 779 778 776 775 776 776 778 780 781 783 784 785
724 722 719 715 715 717 716 715 720 724 730 741 750 755 766 764 772 779 783 787 788 789 792 789 788 787 786 784 782 779 779 779 777 778 778 777 778 778 779 781 781 781 784
Wind_Speed
22 22 24 24 21 20 20 23 20 21 17 12 9 8 9 6 5 8 8 7 5 6 6 6 6 7 6 6 4 7 10 8 10 7 7 2 4 5 4 3 1 6 3
16 18 21 23 24 23 24 24 25 23 22 15 12 9 6 5 6 6 5 4 4 6 8 8 7 8 7 7 6 8 6 5 7 4 4 4 1 5 8 7 6 3 8
19 17 18 22 24 24 23 26 28 25 22 20 15 12 8 7 6 4 3 4 5 7 7 9 10 10 9 8 9 10 9 9 6 8 3 4 6 6 3 4 5 6 7
18 17 18 19 22 26 23 24 27 26 24 22 16 13 11 8 5 4 4 4 7 11 13 11 11 12 13 15 12 12 11 10 11 10 6 6 8 4 4 3 7 7 10
19 18 19 25 25 22 23 23 26 26 23 24 21 16 13 10 7 7 6 9 9 12 9 10 11 13 15 17 19 15 15 11 12 12 3 7 6 11 3 6 4 12 12
19 17 21 18 19 19 20 21 23 29 25 24 24 22 17 14 11 10 9 8 9 9 8 10 11 11 13 15 15 16 18 15 15 13 8 4 7 8 12 6 8 8 6
20 17 16 19 21 23 23 22 22 27 27 25 24 24 23 20 17 14 12 11 11 10 7 9 11 13 16 17 17 16 18 18 17 17 17 17 23 18 23 19 11 8 5
19 19 19 24 25 25 25 24 23 28 27 27 27 26 25 20 18 16 14 13 11 10 12 14 16 19 18 17 17 14 17 20 19 20 21 19 25 25 29 21 15 3 7
18 21 22 25 25 25 27 28 26 25 26 28 28 26 24 23 19 19 17 13 15 14 15 16 17 15 14 14 14 13 16 19 19 21 22 20 23 28 22 17 23 15 3
15 16 16 24 26 27 28 26 27 26 29 27 26 26 26 25 24 22 20 17 16 15 15 14 13 13 15 17 18 14 14 16 17 19 18 16 23 26 19 19 21 24 6
15 16 16 23 26 24 24 27 26 26 26 27 26 25 24 24 24 23 21 20 16 15 14 14 16 17 18 19 17 14 15 15 15 16 14 15 16 20 16 20 19 9 9
13 14 15 20 22 24 24 27 26 26 27 30 31 29 26 23 22 24 21 20 17 14 14 14 14 15 14 15 15 15 13 15 16 17 15 14 12 16 16 16 16 10 11
10 12 13 13 21 24 25 25 26 27 24 24 26 26 26 26 26 24 21 19 16 14 13 13 13 13 13 12 12 15 17 16 17 18 16 15 11 13 16 16 15 13 13
9 13 13 14 19 21 24 24 25 25 23 22 22 22 22 22 19 19 19 18 17 12 12 10 10 10 10 12 13 15 15 15 16 15 14 13 10 11 12 12 13 17 15
9 13 14 13 17 19 21 22 23 22 23 23 21 23 19 15 14 15 15 14 13 13 9 6 7 8 9 10 16 15 14 12 13 13 13 10 7 7 9 13 16 17 18
11 10 11 12 15 20 23 21 21 21 21 22 23 18 15 13 13 13 13 14 14 9 5 2 4 5 7 12 12 9 8 10 12 14 13 11 7 1 4 6 16 16 18
13 11 12 13 17 20 20 21 19 18 18 17 16 16 15 14 14 15 15 13 10 7 5 2 2 5 8 7 8 8 7 9 13 15 13 10 8 3 7 10 12 10 12
15 13 10 10 10 10 17 17 17 18 18 17 16 15 14 14 16 17 15 11 10 8 6 5 4 7 8 6 7 6 6 8 10 13 13 10 8 7 9 13 12 11 9
15 14 13 11 9 10 12 14 16 17 17 17 17 16 16 18 17 16 14 13 13 11 9 8 7 7 9 7 5 6 7 9 10 10 12 10 9 9 7 10 13 11 8
23 16 12 9 11 15 17 15 15 17 19 18 18 18 18 18 18 17 16 14 12 11 10 10 9 8 9 9 6 7 6 9 10 10 9 8 7 10 9 11 11 10 9
23 14 7 11 13 15 17 18 17 17 15 18 18 18 18 18 17 16 14 14 13 12 11 11 9 8 7 10 9 8 7 8 8 9 8 6 4 8 11 12 12 6 8
21 15 10 10 10 15 19 18 18 16 18 18 17 16 17 16 16 16 13 13 14 13 11 10 7 5 5 7 9 10 10 8 5 6 6 4 8 10 9 10 10 12 12
20 18 15 12 12 15 17 17 16 19 17 16 15 16 14 14 15 16 11 9 9 10 9 6 4 2 3 5 6 7 9 10 3 4 3 5 10 9 8 7 9 13 10
17 18 17 15 13 14 14 13 17 23 28 22 14 15 14 14 13 15 12 8 7 7 7 6 3 2 4 6 9 9 8 9 5 3 2 6 10 8 7 6 6 5 6
14 14 14 16 13 11 15 16 20 24 24 31 20 19 17 15 14 16 13 8 9 4 6 6 4 3 4 6 8 8 7 8 6 5 5 4 9 10 7 7 8 8 8
15 16 12 7 6 9 17 23 27 31 32 27 26 24 19 20 15 14 18 16 15 11 9 8 5 4 4 3 3 4 5 5 6 8 9 8 3 4 10 11 9 10 9
Wind_Direction
229 225 222 221 221 221 219 223 221 220 218 221 226 238 248 258 284 285 284 278 257 269 272 301 290 299 296 313 318 331 342 355 348 345 327 300 70 63 63 58 115 137 228
231 226 222 217 218 217 218 221 223 224 224 224 226 227 241 256 271 284 272 246 270 289 277 280 284 290 279 308 326 333 335 339 346 341 302 330 258 55 52 50 98 78 267
226 225 219 215 217 215 214 218 223 223 223 223 219 226 240 257 275 279 236 238 279 283 287 283 281 293 292 308 321 311 321 328 328 338 335 319 338 335 33 28 340 328 305
227 226 218 216 212 218 214 217 221 219 223 219 215 214 221 230 240 280 254 258 285 284 274 275 278 287 295 295 290 296 311 324 321 323 311 31 29 343 322 321 321 297 290
224 221 215 215 213 210 207 211 216 218 220 217 216 215 221 231 242 262 278 273 293 311 272 268 281 289 291 289 282 282 295 291 299 301 315 97 26 328 291 289 285 300 287
223 220 218 215 213 209 208 206 210 219 220 216 218 221 226 231 237 243 257 269 281 297 280 270 277 298 311 310 299 273 267 274 289 288 278 206 203 242 261 248 257 268 278
211 210 201 201 206 205 208 208 210 217 220 221 222 225 231 237 243 250 254 260 270 275 285 290 288 290 297 297 289 277 274 282 286 273 255 239 231 227 241 244 242 240 239
212 211 205 203 203 207 206 209 211 218 221 222 227 230 234 235 240 250 255 262 268 276 283 287 289 291 288 285 280 277 278 286 285 280 278 262 234 240 238 224 229 195 201
206 209 210 207 206 205 207 208 212 218 219 223 230 232 235 236 238 248 259 260 266 271 286 285 287 280 277 285 287 283 283 288 289 284 283 267 258 249 252 235 240 238 163
214 214 211 209 208 209 211 210 211 216 221 224 228 234 236 240 245 253 258 262 268 271 277 281 278 275 273 281 287 286 290 295 295 295 287 268 273 256 262 242 258 251 134
213 212 209 208 209 210 208 209 211 213 216 222 226 228 234 238 243 246 250 254 259 267 274 280 279 276 280 285 288 292 298 300 301 305 297 284 277 261 250 247 254 215 157
232 213 210 205 204 207 207 208 212 213 216 220 225 230 235 236 239 243 244 246 249 257 268 277 276 278 283 289 295 303 297 298 304 304 304 297 281 265 243 247 244 205 160
227 217 204 203 203 205 208 209 209 216 216 214 221 227 236 238 240 244 244 238 236 245 258 262 272 284 291 300 305 301 304 307 304 305 304 299 278 260 243 240 222 185 162
231 209 209 201 202 200 202 208 214 216 213 212 214 221 228 230 233 237 235 226 223 231 248 260 274 286 299 305 308 309 310 312 312 313 312 305 288 252 229 216 209 168 162
232 219 207 204 200 202 203 207 215 212 208 208 209 219 224 228 230 228 221 206 206 223 233 256 284 305 316 311 311 307 315 326 327 334 336 334 305 231 210 198 180 160 159
283 240 223 212 208 203 200 206 209 210 206 210 214 216 220 220 213 209 195 190 197 202 219 258 326 330 324 330 336 341 348 349 350 346 348 351 4 355 164 190 178 169 158
310 271 232 220 214 204 197 204 204 203 206 209 209 206 203 195 192 187 182 177 175 162 146 112 31 1 1 2 3 2 13 20 20 19 12 10 25 82 145 147 154 165 176
328 308 267 240 235 225 199 194 188 185 188 193 191 185 183 180 178 174 170 163 153 152 140 114 87 57 35 25 15 19 43 36 31 30 23 30 45 96 123 136 138 153 170
319 300 281 250 206 200 197 189 174 175 175 178 177 176 175 169 169 169 165 161 155 147 137 125 109 74 51 38 35 44 40 34 31 30 38 48 74 92 107 131 138 145 163
330 311 282 239 223 192 180 175 181 175 173 173 169 166 165 164 166 167 163 157 152 143 137 120 108 91 67 42 36 45 32 33 30 29 40 43 96 112 113 121 130 135 168
332 324 291 266 235 201 186 178 177 180 175 161 159 158 160 159 158 156 156 152 152 148 140 127 112 92 74 52 40 39 34 21 25 27 26 30 104 124 126 130 126 121 148
335 323 289 264 242 212 191 184 182 166 160 155 153 149 149 151 150 149 151 155 153 149 137 128 115 87 57 44 37 33 35 31 18 12 35 58 138 138 136 131 140 151 143
327 317 289 264 227 213 212 192 167 151 139 134 135 138 137 136 135 131 135 139 147 154 155 140 126 91 29 11 14 33 30 22 37 8 24 127 143 144 135 132 147 155 161
318 314 292 265 249 208 196 202 159 149 138 125 126 126 124 118 118 118 123 137 137 142 148 139 117 66 41 22 20 26 34 26 47 42 58 160 163 165 162 165 176 199 204
301 301 285 272 264 206 183 164 156 150 133 124 147 126 122 112 102 99 98 100 111 117 130 113 94 69 57 28 31 33 36 28 30 66 71 111 184 195 199 196 201 205 211
300 292 272 213 186 171 159 155 155 148 138 136 142 135 130 122 112 104 100 101 102 97 93 98 106 68 69 81 70 68 55 42 80 82 68 64 59 244 232 229 222 217 215